EW1104 Weather Reports


Display with metric or nautical units.
time (UTC)temp
F
wind
direction
speed
MPH
gust
MPH
rain 1hr
in
rain 24hr
in
rain mn
in
humidity
%
barometer
mb
20260503203042 61 36 0.0 2.0 0.00 0.00 0.00 36 1010.6
20260503201536 63 328 0.0 2.0 0.00 0.00 0.00 36 1010.9
20260503200035 62 281 0.0 2.0 0.00 0.00 0.00 37 1011.0
20260503194531 61 46 0.0 3.0 0.00 0.00 0.00 33 1011.2
20260503193028 59 333 0.0 2.0 0.00 0.00 0.00 36 1011.2
20260503191527 59 218 0.0 3.0 0.00 0.00 0.00 36 1011.4
20260503190027 59 33 0.0 2.0 0.00 0.00 0.00 33 1011.4
20260503184526 59 23 0.0 3.0 0.00 0.00 0.00 35 1011.6
20260503183024 60 90 0.0 5.0 0.00 0.00 0.00 40 1011.8
20260503181520 59 231 0.0 2.0 0.00 0.00 0.00 37 1011.8
20260503180018 58 277 0.0 3.0 0.00 0.00 0.00 43 1011.8
20260503174515 56 319 0.0 3.0 0.00 0.00 0.00 45 1012.0
20260503173011 55 355 0.0 3.0 0.00 0.00 0.00 42 1012.1
20260503171511 55 204 0.0 4.0 0.00 0.00 0.00 43 1012.2
20260503081519 44 39 0.0 1.0 0.00 0.00 0.00 62 1010.6
20260503071515 45 290 0.0 1.0 0.00 0.00 0.00 59 1010.6
20260503054509 46 347 0.0 1.0 0.00 0.00 0.00 56 1010.8
20260503053101 46 4 0.0 1.0 0.00 0.00 0.00 55 1010.9
20260503051559 47 1 0.0 0.0 0.00 0.00 0.00 55 1011.0
20260503050056 47 1 0.0 0.0 0.00 0.00 0.00 56 1011.2
20260503044556 47 356 0.0 0.0 0.00 0.00 0.00 56 1011.3
20260503043054 47 355 0.0 0.0 0.00 0.00 0.00 55 1011.4
20260503041551 47 355 0.0 0.0 0.00 0.00 0.00 54 1011.3
20260503040047 48 355 0.0 0.0 0.00 0.00 0.00 53 1011.4
20260503034548 48 355 0.0 0.0 0.00 0.00 0.00 53 1011.2
20260503033047 48 356 0.0 1.0 0.00 0.00 0.00 53 1011.1
20260503031546 48 236 0.0 0.0 0.00 0.00 0.00 54 1011.2
20260503030046 48 236 0.0 0.0 0.00 0.00 0.00 55 1011.3
20260503024545 48 236 0.0 0.0 0.00 0.00 0.00 55 1011.4
20260503023044 49 236 0.0 0.0 0.00 0.00 0.00 54 1011.5
20260503021553 49 236 0.0 0.0 0.00 0.00 0.00 54 1011.4
20260503020045 50 236 0.0 0.0 0.00 0.00 0.00 51 1011.4
20260503014543 50 236 0.0 0.0 0.00 0.00 0.00 51 1011.4
20260503013042 50 236 0.0 0.0 0.00 0.00 0.00 50 1011.6
20260503011549 51 236 0.0 0.0 0.00 0.00 0.00 53 1011.5
20260503010043 51 236 0.0 0.0 0.00 0.00 0.00 52 1011.3
20260503004540 51 236 0.0 0.0 0.00 0.00 0.00 51 1011.0
20260503003040 52 236 0.0 0.0 0.00 0.00 0.00 50 1010.9
20260503001540 52 236 0.0 0.0 0.00 0.00 0.00 49 1010.8
20260503000056 53 236 0.0 0.0 0.00 0.00 0.00 48 1010.8
20260502234539 53 236 0.0 0.0 0.00 0.00 0.00 48 1010.6
20260502233038 54 236 0.0 0.0 0.00 0.00 0.00 49 1010.8
20260502231540 55 236 0.0 0.0 0.00 0.00 0.00 47 1010.6
20260502230038 55 236 0.0 0.0 0.00 0.00 0.00 46 1010.5
20260502224537 55 132 0.0 0.0 0.00 0.00 0.00 46 1010.5
20260502223037 56 133 0.0 0.0 0.00 0.00 0.00 45 1010.3
20260502221538 57 200 0.0 0.0 0.00 0.00 0.00 46 1010.4
20260502220043 57 210 0.0 1.0 0.00 0.00 0.00 43 1010.4
20260502214538 58 77 0.0 3.0 0.00 0.00 0.00 44 1010.3
20260502213040 60 53 0.0 1.0 0.00 0.00 0.00 44 1010.2
20260502211537 62 215 0.0 1.0 0.00 0.00 0.00 40 1010.0
20260502210033 62 29 0.0 1.0 0.00 0.00 0.00 39 1010.0
20260502204535 62 35 0.0 2.0 0.00 0.00 0.00 41 1010.0